EW7398 Weather Reports


Display with metric or nautical units.
time (UTC)temp
F
wind
direction
speed
MPH
gust
MPH
rain 1hr
in
rain 24hr
in
rain mn
in
humidity
%
barometer
mb
20260904053028 70 153 3.0 7.0 0.00 0.00 0.00 61 1006.7
20260904051600 70 144 3.0 7.0 0.00 0.00 0.00 60 1006.7
20260904051504 70 144 3.0 7.0 0.00 0.00 0.00 60 1006.7
20260904050103 70 190 4.0 7.0 0.00 0.00 0.00 59 1006.8
20260904044539 69 153 3.0 8.0 0.00 0.00 0.00 61 1006.9
20260904043011 70 135 2.0 5.0 0.00 0.00 0.00 60 1006.8
20260904041603 70 130 3.0 7.0 0.00 0.00 0.00 58 1006.6
20260904040048 71 133 3.0 5.0 0.00 0.00 0.00 57 1006.4
20260904034507 72 13 3.0 5.0 0.00 0.00 0.00 55 1006.2
20260904033041 73 13 3.0 8.0 0.00 0.00 0.00 54 1006.2
20260904031545 74 13 3.0 6.0 0.00 0.00 0.00 52 1006.1
20260904030117 75 13 3.0 5.0 0.00 0.00 0.00 50 1006.0
20260904024534 76 15 3.0 8.0 0.00 0.00 0.00 48 1005.9
20260904023020 76 18 3.0 9.0 0.00 0.00 0.00 46 1005.8
20260904021558 77 24 3.0 9.0 0.00 0.00 0.00 45 1005.6
20260904020050 78 16 3.0 10.0 0.00 0.00 0.00 43 1005.6
20260904014621 78 15 6.0 14.0 0.00 0.00 0.00 42 1005.6
20260904014507 78 15 6.0 14.0 0.00 0.00 0.00 42 1005.6
20260904013056 79 27 7.0 15.0 0.00 0.00 0.00 41 1005.6
20260904011533 79 13 6.0 12.0 0.00 0.00 0.00 41 1005.6
20260904010004 80 223 5.0 13.0 0.00 0.00 0.00 39 1005.6
20260904004545 81 252 9.0 18.0 0.00 0.00 0.00 36 1005.7
20260904003030 81 228 7.0 18.0 0.00 0.00 0.00 37 1005.7
20260904001512 82 244 8.0 15.0 0.00 0.00 0.00 36 1005.7
20260904000105 82 200 9.0 16.0 0.00 0.00 0.00 34 1005.8
20260903234519 82 196 10.0 16.0 0.00 0.00 0.00 35 1005.7
20260903233008 82 194 7.0 15.0 0.00 0.00 0.00 33 1005.7
20260903231602 83 198 9.0 18.0 0.00 0.00 0.00 35 1005.9
20260903230005 84 231 9.0 17.0 0.00 0.00 0.00 33 1006.1
20260903224545 84 200 9.0 20.0 0.00 0.00 0.00 33 1006.2
20260903223023 85 200 7.0 17.0 0.00 0.00 0.00 33 1006.2
20260903221504 86 191 11.0 21.0 0.00 0.00 0.00 32 1006.5
20260903214505 86 220 9.0 29.0 0.00 0.00 0.00 32 1006.8
20260903213043 86 188 10.0 17.0 0.00 0.00 0.00 32 1007.0
20260903211532 87 236 12.0 22.0 0.00 0.00 0.00 31 1007.1
20260903210109 86 210 10.0 19.0 0.00 0.00 0.00 30 1007.2
20260903204533 86 209 10.0 22.0 0.00 0.00 0.00 31 1007.3
20260903203022 85 192 12.0 23.0 0.00 0.00 0.00 32 1007.4
20260903201503 86 194 9.0 21.0 0.00 0.00 0.00 30 1007.3
20260903200047 86 193 10.0 20.0 0.00 0.00 0.00 31 1007.4
20260903194555 86 202 7.0 20.0 0.00 0.00 0.00 32 1007.8
20260903193038 86 220 10.0 21.0 0.00 0.00 0.00 31 1007.9
20260903191522 85 199 11.0 21.0 0.00 0.00 0.00 32 1008.1
20260903184519 84 186 8.0 20.0 0.00 0.00 0.00 33 1008.4
20260903183115 83 219 9.0 19.0 0.00 0.00 0.00 34 1008.8
20260903181534 82 150 8.0 20.0 0.00 0.00 0.00 36 1009.0
20260903180116 82 175 11.0 19.0 0.00 0.00 0.00 34 1009.1
20260903174535 81 182 9.0 17.0 0.00 0.00 0.00 37 1009.3
20260903173010 80 175 7.0 14.0 0.00 0.00 0.00 38 1009.3
20260903171556 79 159 10.0 15.0 0.00 0.00 0.00 38 1009.4
20260903170033 79 200 8.0 16.0 0.00 0.00 0.00 40 1009.4
20260903164544 78 214 5.0 14.0 0.00 0.00 0.00 41 1009.5
20260903163025 76 178 8.0 17.0 0.00 0.00 0.00 42 1009.4
20260903161615 75 163 8.0 14.0 0.00 0.00 0.00 44 1009.4
20260903160037 74 144 7.0 15.0 0.00 0.00 0.00 45 1009.6
20260903154543 72 360 7.0 14.0 0.00 0.00 0.00 45 1009.6
20260903153018 71 148 10.0 17.0 0.00 0.00 0.00 46 1009.6
20260903151556 69 176 8.0 14.0 0.00 0.00 0.00 47 1009.7
20260903150014 68 360 6.0 12.0 0.00 0.00 0.00 48 1009.7
20260903144550 66 360 8.0 12.0 0.00 0.00 0.00 51 1009.8
20260903143035 64 360 3.0 6.0 0.00 0.00 0.00 56 1009.9
20260903141505 61 360 2.0 4.0 0.00 0.00 0.00 60 1009.8
20260903140045 59 360 2.0 5.0 0.00 0.00 0.00 63 1009.6
20260903134607 58 153 1.0 3.0 0.00 0.00 0.00 64 1009.4
20260903133047 58 96 2.0 4.0 0.00 0.00 0.00 63 1009.1
20260903131521 58 101 1.0 4.0 0.00 0.00 0.00 63 1009.0
20260903130104 58 107 1.0 6.0 0.00 0.00 0.00 62 1008.8
20260903124545 58 108 2.0 4.0 0.00 0.00 0.00 62 1008.7
20260903123055 58 136 2.0 5.0 0.00 0.00 0.00 62 1008.7
20260903121548 58 127 4.0 8.0 0.00 0.00 0.00 62 1008.6
20260903120116 58 133 3.0 5.0 0.00 0.00 0.00 63 1008.7
20260903114536 58 136 2.0 5.0 0.00 0.00 0.00 62 1008.6
20260903113021 58 133 3.0 5.0 0.00 0.00 0.00 62 1008.7
20260903111555 58 136 3.0 4.0 0.00 0.00 0.00 62 1008.7
20260903110020 59 134 3.0 5.0 0.00 0.00 0.00 61 1008.6
20260903104510 59 87 2.0 6.0 0.00 0.00 0.00 59 1008.6
20260903103047 59 134 2.0 4.0 0.00 0.00 0.00 58 1008.6
20260903101532 59 132 0.0 3.0 0.00 0.00 0.00 57 1008.7
20260903100106 60 131 0.0 1.0 0.00 0.00 0.00 56 1008.7
20260903094538 60 128 0.0 4.0 0.00 0.00 0.00 55 1008.7
20260903093018 60 117 3.0 6.0 0.00 0.00 0.00 57 1008.8
20260903091510 60 134 0.0 3.0 0.00 0.00 0.00 57 1008.8
20260903090051 60 136 1.0 7.0 0.00 0.00 0.00 58 1008.7
20260903084506 60 113 2.0 5.0 0.00 0.00 0.00 59 1008.6
20260903083047 60 130 2.0 5.0 0.00 0.00 0.00 58 1008.7
20260903081532 61 115 4.0 8.0 0.00 0.00 0.00 59 1009.1
20260903080117 61 121 1.0 4.0 0.00 0.00 0.00 57 1008.8
20260903074532 61 115 0.0 4.0 0.00 0.00 0.00 56 1009.0
20260903073014 62 119 3.0 6.0 0.00 0.00 0.00 57 1009.1
20260903071556 63 94 2.0 6.0 0.00 0.00 0.00 57 1009.0
20260903070046 64 123 1.0 3.0 0.00 0.00 0.00 56 1009.0
20260903064602 64 127 0.0 0.0 0.00 0.00 0.00 55 1008.9
20260903064508 64 128 0.0 0.0 0.00 0.00 0.00 55 1008.9
20260903063039 65 121 0.0 3.0 0.00 0.00 0.00 50 1009.0
20260903061535 66 123 2.0 4.0 0.00 0.00 0.00 51 1008.9
20260903060108 67 124 1.0 4.0 0.00 0.00 0.00 49 1008.9
20260903054542 68 123 0.0 0.0 0.00 0.00 0.00 47 1008.9